Regional Weather Roundup
Issued by NWS

Home | Current Version | Previous Version | Graphics & Text | Print | Product List | Glossary On
Versions: 1 2 3 4 5 6 7 8 9 10 11 12 13 14 15 16 17 18 19 20 21 22 23 24 25 26 27 28 29 30 31 32 33 34 35 36 37 38 39 40 41 42 43 44 45 46 47 48 49 50
000
ASUS44 KMEG 241110
RWRTN
TENNESSEE HOURLY STATE WEATHER ROUNDUP
NATIONAL WEATHER SERVICE MEMPHIS TN
600 AM CDT WED MAY 24 2017

TNZ002-004-019-021-049-052-054-088>092-241200-
WEST TENNESSEE

CITY           SKY/WX    TMP DP  RH WIND       PRES   REMARKS
MEMPHIS INTL   LGT RAIN  58  56  93 N6        29.57F
NWS MEMPHIS      N/A     57 N/A N/A MISG        N/A
JACKSON        LGT RAIN  60  60 100 N12       29.54S FOG
DYERSBURG        N/A    N/A N/A N/A MISG        N/A
COVINGTON      CLOUDY    57  55  94 N7        29.57F
UNION CITY     CLOUDY    59  55  88 N7        29.55F
BOLIVAR        CLOUDY    59  59 100 NW9G17    29.52F
PARIS          CLOUDY    59  57  94 N8        29.53F FOG
HUNTINGDON     CLOUDY    59  59 100 VRB6      29.53F
LEXINGTON      CLOUDY    61  59  94 MISG      29.52F FOG
SELMER         CLOUDY    59  59 100 NW5G12    29.51F FOG
SAVANNAH       CLOUDY    61  61 100 N3        29.50F FOG
$$

TNZ008-025-027-028-033-062-065-066-241200-
NORTH MIDDLE TENNESSEE

CITY           SKY/WX    TMP DP  RH WIND       PRES   REMARKS
NASHVILLE      LGT RAIN  62  60  93 SW5       29.54S
PORTLAND       CLOUDY    61  59  94 CALM      29.53S
CLARKSVILLE    LGT RAIN  61  57  87 N7        29.53S
SMYRNA         RAIN      61  59  94 S3        29.54S FOG
COOKEVILLE     CLOUDY    61  61 100 CALM      29.52F
CROSSVILLE     CLOUDY    59  58  96 S5        29.58F FOG
$$

TNZ061-075-076-078-094-096-097-241200-
SOUTH MIDDLE TENNESSEE

CITY           SKY/WX    TMP DP  RH WIND       PRES   REMARKS
FAYETTEVILLE   CLOUDY    63  63 100 CALM      29.53F
TULLAHOMA      CLOUDY    61  61 100 W14       29.56R
WINCHESTER     CLOUDY    63  63 100 S3          N/A
COLUMBIA       MOCLDY    61  61 100 CALM      29.50F
SHELBYVILLE    CLOUDY    61  61 100 NW5       29.53F FOG
$$

TNZ017-018-042-046-047-241200-
NORTHEAST TENNESSEE

CITY           SKY/WX    TMP DP  RH WIND       PRES   REMARKS
TRI CITIES     MOCLDY    61  60  97 CALM      29.62F
ELIZABETHTON   MOCLDY    61  59  94 VRB5      29.62F
$$

TNZ012-013-036-069-073-074-241200-
CENTRAL EAST TENNESSEE

CITY           SKY/WX    TMP DP  RH WIND       PRES   REMARKS
KNOXVILLE      CLOUDY    61  59  93 SE3       29.58R FOG
OAK RIDGE      CLOUDY    63  60  90 CALM      29.59S
DOWNTOWN KNOXV CLOUDY    63  63 100 CALM      29.59R
GATLINBURG     CLEAR     57  57 100 CALM      29.58F
MORRISTOWN     CLOUDY    59  59 100 SE6       29.58F
JACKSBORO      CLOUDY    61  61 100 CALM      29.60S
$$

TNZ083-085-099-241200-
SOUTHEAST TENNESSEE

CITY           SKY/WX    TMP DP  RH WIND       PRES   REMARKS
CHATTANOOGA    CLOUDY    64  62  93 SE6       29.57S FOG
$$

SKY/WX REPORTED AS FAIR MEANS FEW OR NO CLOUDS BELOW
12 THOUSAND FEET.




USA.gov is the U.S. government's official web portal to all federal, state and local government web resources and services.